Concord, NH

6:57 AM EST on November 22, 2017 (GMT -0500)
Concord Municipal

Weather History for KCON - May, 2012

Change the Weather History Date:

Friday, May 4, 2012

  Actual Average Record
Temperature  
Mean Temperature 52 °F 52 °F  
Max Temperature 55 °F 65 °F 92 °F (1944)
Min Temperature 48 °F 39 °F 22 °F (1946)
Degree Days  
Heating Degree Days 13 13  
Month to date heating degree days 67 55  
Since 1 July heating degree days 5808 6902  
Cooling Degree Days 0 0  
Month to date cooling degree days 0 0  
Year to date cooling degree days 9 2  
Growing Degree Days 2 (Base 50)    
Moisture  
Dew Point 49 °F    
Average Humidity 95    
Maximum Humidity 100    
Minimum Humidity 89    
Precipitation  
Precipitation 0.13 in 0.12 in 1.80 in (1940)
Month to date precipitation 1.01 0.46  
Year to date precipitation 9.58 12.46  
Snow  
Snow 0.00 in 0.10 in T in (1986)
Month to date snowfall 0.0 0.1  
Since 1 July snowfall 48.9 61.5  
Snow Depth 0.00 in    
Sea Level Pressure  
Sea Level Pressure 29.98 in    
Wind  
Wind Speed 3 mph (ESE)    
Max Wind Speed 9 mph    
Max Gust Speed 13 mph    
Visibility 6 miles    
Events Fog , Rain    
T = Trace of Precipitation, MM = Missing Value Source: NWS Daily Summary

Daily Weather History Graph

Daily Weather History Graph

Search for Another Location

Airport or City:

Trip Planner

Search our weather history database for the weather conditions in past years. The results will help you decide how hot, cold, wet, or windy it might be!

Date:

Astronomy

May. 04, 2012 Rise Set
Actual Time 5:34 AM EDT 7:51 PM EDT
Civil Twilight 5:03 AM EDT 8:23 PM EDT
Nautical Twilight 4:24 AM EDT 9:02 PM EDT
Astronomical Twilight 3:40 AM EDT 9:45 PM EDT
Moon 6:24 PM EDT (5/4) 4:16 AM EDT (5/4)
Length of Visible Light 15h 19m
Length of Day
14h 16m
Waxing Gibbous, 97% of the Moon is Illuminated
May 4
Waxing Gibbous
May 5
Full
May 12
Last Quarter
May 20
New
May 28
First Quarter

Hourly Weather History & Observations

Time (EDT) Temp. Dew Point Humidity Pressure Visibility Wind Dir Wind Speed Gust Speed Precip Events Conditions
12:42 AM 48.2 °F 48.2 °F 100% 30.05 in 2.5 mi SE 5.8 mph - 0.01 in Rain Light Rain
12:51 AM 48.0 °F 48.0 °F 100% 30.07 in 3.0 mi ESE 3.5 mph - 0.01 in Rain Light Rain
1:51 AM 48.9 °F 48.0 °F 97% 30.04 in 2.0 mi SSE 8.1 mph - 0.00 in   Overcast
1:56 AM 48.2 °F 48.2 °F 100% 30.04 in 1.2 mi SSE 3.5 mph - N/A   Overcast
2:14 AM 48.2 °F 48.2 °F 100% 30.03 in 0.8 mi South 6.9 mph - N/A   Overcast
2:51 AM 48.0 °F 48.0 °F 100% 30.02 in 0.5 mi SE 4.6 mph - N/A Fog Fog
3:51 AM 48.9 °F 48.0 °F 97% 30.11 in 0.5 mi West 8.1 mph - N/A Fog Fog
4:16 AM 48.2 °F 48.2 °F 100% 30.05 in 1.2 mi SSE 3.5 mph - N/A   Overcast
4:37 AM 48.2 °F 48.2 °F 100% 29.99 in 2.5 mi SE 5.8 mph - 0.02 in Rain Light Rain
4:43 AM 48.2 °F 48.2 °F 100% 29.99 in 4.0 mi Variable 3.5 mph - 0.03 in Rain Rain
4:51 AM 48.9 °F 48.9 °F 100% 30.00 in 5.0 mi Calm Calm - 0.04 in Rain Light Rain
5:10 AM 48.2 °F 48.2 °F 100% 29.98 in 6.0 mi SSE 5.8 mph - 0.01 in Rain Light Rain
5:28 AM 48.2 °F 48.2 °F 100% 29.98 in 6.0 mi SSE 6.9 mph - 0.01 in Rain Light Rain
5:51 AM 48.0 °F 48.0 °F 100% 29.99 in 6.0 mi South 4.6 mph - 0.02 in Rain Light Rain
6:26 AM 48.2 °F 48.2 °F 100% 29.96 in 2.5 mi SE 5.8 mph - 0.02 in Rain Light Rain
6:38 AM 48.2 °F 48.2 °F 100% 29.97 in 4.0 mi SSE 5.8 mph - 0.02 in Rain Light Rain
6:51 AM 48.9 °F 48.9 °F 100% 29.97 in 5.0 mi SSE 6.9 mph - 0.03 in Rain Light Rain
7:47 AM 48.2 °F 48.2 °F 100% 29.97 in 7.0 mi SE 3.5 mph - 0.00 in Rain Light Rain
7:51 AM 50.0 °F 48.9 °F 96% 29.97 in 7.0 mi Calm Calm - 0.00 in Rain Light Rain
8:51 AM 50.0 °F 50.0 °F 100% 29.97 in 4.0 mi SSE 4.6 mph - 0.00 in   Overcast
9:04 AM 50.0 °F 50.0 °F 100% 29.96 in 3.0 mi SSE 4.6 mph - N/A   Overcast
9:17 AM 50.0 °F 50.0 °F 100% 29.96 in 2.5 mi SSE 5.8 mph - N/A   Overcast
9:51 AM 50.0 °F 50.0 °F 100% 29.97 in 2.5 mi Calm Calm - N/A   Overcast
10:08 AM 50.0 °F 50.0 °F 100% 29.96 in 3.0 mi ESE 3.5 mph - N/A   Overcast
10:25 AM 50.0 °F 50.0 °F 100% 29.95 in 2.0 mi SE 4.6 mph - 0.01 in Rain Light Rain
10:34 AM 50.0 °F 50.0 °F 100% 29.96 in 1.5 mi SE 3.5 mph - 0.02 in Rain Light Rain
10:48 AM 50.0 °F 50.0 °F 100% 29.95 in 2.0 mi ESE 4.6 mph - 0.02 in Rain Light Rain
10:51 AM 50.0 °F 50.0 °F 100% 29.96 in 1.8 mi ESE 4.6 mph - 0.02 in Rain Light Rain
11:05 AM 51.8 °F 50.0 °F 94% 29.95 in 2.0 mi ESE 3.5 mph - 0.01 in Rain Light Rain
11:16 AM 51.8 °F 50.0 °F 94% 29.95 in 5.0 mi Calm Calm - 0.01 in Rain Light Rain
11:38 AM 51.8 °F 51.8 °F 100% 29.95 in 5.0 mi Calm Calm - 0.01 in Rain Light Rain
11:51 AM 52.0 °F 51.1 °F 97% 29.95 in 5.0 mi Calm Calm - 0.02 in   Overcast
12:38 PM 53.6 °F 51.8 °F 94% 29.95 in 10.0 mi Calm Calm - 0.00 in   Overcast
12:51 PM 53.1 °F 51.1 °F 93% 29.96 in 10.0 mi Calm Calm - 0.00 in   Overcast
1:05 PM 53.6 °F 50.0 °F 88% 29.95 in 10.0 mi Calm Calm - N/A   Overcast
1:51 PM 53.1 °F 52.0 °F 96% 29.95 in 3.0 mi ENE 5.8 mph - N/A   Overcast
2:51 PM 54.0 °F 51.1 °F 90% 29.95 in 10.0 mi Calm Calm - N/A   Overcast
3:01 PM 53.6 °F 51.8 °F 94% 29.94 in 10.0 mi Calm Calm - N/A   Overcast
3:51 PM 54.0 °F 51.1 °F 90% 29.94 in 10.0 mi ENE 3.5 mph - N/A   Overcast
4:51 PM 54.0 °F 50.0 °F 86% 29.96 in 10.0 mi NE 3.5 mph - N/A   Overcast
5:51 PM 53.1 °F 50.0 °F 89% 29.96 in 10.0 mi NE 5.8 mph - N/A   Overcast
6:51 PM 52.0 °F 48.9 °F 89% 29.96 in 10.0 mi ENE 6.9 mph - N/A   Overcast
7:07 PM 51.8 °F 48.2 °F 88% 29.96 in 10.0 mi Variable 6.9 mph - N/A   Overcast
7:17 PM 51.8 °F 48.2 °F 88% 29.96 in 10.0 mi ENE 5.8 mph - N/A   Overcast
7:51 PM 52.0 °F 48.9 °F 89% 29.98 in 10.0 mi NE 3.5 mph - N/A   Overcast
8:03 PM 51.8 °F 48.2 °F 88% 29.97 in 10.0 mi NE 4.6 mph - N/A   Overcast
8:23 PM 51.8 °F 48.2 °F 88% 29.97 in 10.0 mi ENE 5.8 mph - N/A   Overcast
8:51 PM 50.0 °F 48.0 °F 93% 29.98 in 10.0 mi Calm Calm - N/A   Overcast
9:26 PM 51.8 °F 48.2 °F 88% 29.98 in 10.0 mi Calm Calm - N/A   Overcast
9:51 PM 51.1 °F 48.0 °F 89% 29.99 in 10.0 mi NE 3.5 mph - N/A   Overcast
10:51 PM 50.0 °F 48.0 °F 93% 29.97 in 10.0 mi Calm Calm - N/A   Overcast
11:51 PM 50.0 °F 48.0 °F 93% 29.96 in 10.0 mi Calm Calm - N/A   Overcast